[[{"header":{"parameterUnit":"m.s-1","parameterCategory":1,"la1":30.2992,"la2":30.254,"lo1":-89.0895,"lo2":-89.0443,"dy":0.0025,"dx":0.0025,"nx":19,"ny":19,"refTime":"2026-03-13T03:00:00:Z","depth":0,"parameterNumber":2,"parameterNumberName":"U-component_of_WINDS"},"data":[0,0,0,-3.0712,-3.0716,-3.0927,-3.0928,-3.1175,-3.1177,0,0,0,0,0,0,0,0,0,0,0,-3.0637,-3.0638,-3.0712,-3.0717,-3.0927,-3.0928,-3.1175,-3.1177,0,0,0,0,0,0,0,0,0,0,0,-3.0636,-3.0638,-3.064,-3.0718,-3.0926,-3.0928,-3.1174,-3.1023,0,0,0,0,0,0,0,0,0,0,-3.0823,-3.074,-3.0638,-3.064,-3.0719,-3.0926,-3.0928,-3.1016,-3.1033,-3.1071,0,-3.1102,0,-3.1143,-3.1192,-3.1193,0,0,0,-3.0726,-3.0727,-3.0796,-3.064,-3.0721,-3.0926,-3.0835,-3.1026,-3.1044,-3.1092,-3.1105,-3.1115,-3.1147,-3.1194,-3.1195,-3.1388,-3.1389,0,0,-3.0714,-3.0667,-3.0783,-3.0807,-3.0774,-3.0828,-3.0841,-3.1037,-3.1048,-3.1106,-3.1121,-3.1152,-3.1195,-3.1197,-3.1388,-3.1389,0,0,0,-3.0675,-3.0659,-3.0723,-3.0796,-3.0836,-3.0834,-3.0849,-3.1039,-3.1064,-3.1124,-3.1154,-3.1197,-3.1199,-3.1388,-3.1388,-3.1366,0,0,0,-3.0668,-3.0636,-3.0718,-3.0691,-3.0832,-3.094,-3.0846,-3.105,-3.1074,-3.1153,-3.1197,-3.1202,-3.1387,-3.1388,-3.1365,-3.1361,0,0,0,-3.0628,-3.0631,-3.0657,-3.0688,-3.0777,-3.0938,-3.0975,-3.1057,-3.1092,-3.1193,-3.1202,-3.1387,-3.1388,-3.1365,-3.1361,-3.1399,0,0,0,-3.057,-3.0632,-3.0656,-3.0738,-3.0775,-3.0923,-3.0974,-3.1087,-3.1171,-3.1198,-3.1387,-3.1388,-3.1365,-3.1361,-3.1398,-3.142,-3.1425,0,0,-3.0622,-3.0637,-3.0689,-3.0717,-3.0849,-3.0895,-3.1025,-3.1145,-3.1198,-3.1322,-3.1327,-3.1365,-3.1361,-3.1398,-3.1477,-3.148,0,0,0,-3.0689,-3.0726,-3.0772,-3.0851,-3.0947,-3.1029,-3.1136,-3.1182,-3.129,-3.1252,-3.1392,-3.1391,-3.1415,-3.1427,-3.1431,-3.1454,-3.1393,-3.1393,-3.1393,-3.0691,-3.0758,-3.085,-3.0943,-3.1019,-3.1132,-3.12,-3.1281,-3.1323,-3.1356,-3.1391,-3.1431,-3.1444,-3.1447,-3.1471,-3.1411,-3.1411,-3.1411,-3.1411,-3.0772,-3.0834,-3.0895,-3.1004,-3.1076,-3.1169,-3.1282,-3.131,-3.1407,-3.1409,-3.1433,-3.1426,-3.1449,-3.1474,-3.141,-3.141,-3.141,-3.141,-3.141,-3.0778,-3.082,-3.0877,-3.1002,-3.1091,-3.1185,-3.1277,-3.1338,-3.1396,-3.1421,-3.1466,-3.1466,-3.1473,-3.1439,-3.1439,-3.1439,-3.1439,-3.144,-3.144,-3.076,-3.0826,-3.0896,-3.1008,-3.1069,-3.1158,-3.1276,-3.1338,-3.1423,-3.146,-3.1461,-3.15,-3.1441,-3.1423,-3.1442,-3.1442,-3.1441,-3.1441,-3.1441,-3.0812,-3.0812,-3.0919,-3.0981,-3.112,-3.1205,-3.1285,-3.1407,-3.1468,-3.1512,-3.1549,-3.1496,-3.1514,-3.1512,-3.1497,-3.1535,-3.1535,-3.1535,-3.1535,-3.0815,-3.0833,-3.0959,-3.1054,-3.1155,-3.124,-3.1362,-3.1456,-3.1553,-3.1596,-3.1601,-3.1588,-3.1583,-3.1604,-3.16,-3.1587,-3.1647,-3.1647,-3.1647,-3.0851,-3.0882,-3.0972,-3.1069,-3.1184,-3.128,-3.1397,-3.1504,-3.1615,-3.1653,-3.163,-3.1625,-3.1606,-3.1597,-3.1627,-3.162,-3.1598,0,0]},{"header":{"parameterUnit":"m.s-1","parameterCategory":1,"la1":30.2992,"la2":30.254,"lo1":-89.0895,"lo2":-89.0443,"dy":0.0025,"dx":0.0025,"nx":19,"ny":19,"refTime":"2026-03-13T03:00:00:Z","depth":0,"parameterNumber":3,"parameterNumberName":"V-component_of_WINDS"},"data":[0,0,0,3.7481,3.7483,3.7558,3.7559,3.7649,3.765,0,0,0,0,0,0,0,0,0,0,0,3.7457,3.7458,3.7481,3.7483,3.7558,3.7559,3.7649,3.765,0,0,0,0,0,0,0,0,0,0,0,3.7457,3.7458,3.7459,3.7483,3.7558,3.7559,3.7649,3.7593,0,0,0,0,0,0,0,0,0,0,3.7521,3.7498,3.7458,3.7459,3.7484,3.7558,3.7559,3.7591,3.7597,3.7613,0,3.7629,0,3.7641,3.7656,3.7656,0,0,0,3.7483,3.7493,3.7515,3.7459,3.7485,3.7558,3.7524,3.7594,3.7601,3.7621,3.763,3.7634,3.7643,3.7656,3.7657,3.7756,3.7756,0,0,3.7479,3.7469,3.751,3.7519,3.751,3.7522,3.7527,3.7598,3.7607,3.7631,3.7636,3.7644,3.7657,3.7657,3.7756,3.7756,0,0,0,3.7467,3.7466,3.7487,3.7516,3.753,3.7524,3.753,3.7604,3.7611,3.7637,3.7645,3.7657,3.7658,3.7755,3.7756,3.7769,0,0,0,3.7465,3.7459,3.7485,3.748,3.7529,3.7568,3.7533,3.7606,3.7615,3.7645,3.7657,3.7659,3.7755,3.7755,3.7768,3.7776,0,0,0,3.7453,3.7458,3.7469,3.7479,3.7512,3.7567,3.7579,3.7608,3.762,3.7656,3.7659,3.7754,3.7755,3.7767,3.7774,3.78,0,0,0,3.7437,3.7477,3.7469,3.7518,3.7511,3.7576,3.7579,3.7627,3.766,3.7658,3.7755,3.7756,3.7766,3.7773,3.7798,3.7819,3.7827,0,0,3.7482,3.7482,3.7512,3.7507,3.7572,3.7566,3.7632,3.7669,3.768,3.7729,3.7732,3.7768,3.7774,3.7799,3.7878,3.7884,0,0,0,3.7523,3.7544,3.7564,3.7596,3.7629,3.7657,3.7686,3.7701,3.7744,3.7705,3.7785,3.7789,3.7804,3.7814,3.782,3.7833,3.776,3.776,3.776,3.7571,3.7586,3.7637,3.7662,3.7693,3.7725,3.7752,3.7776,3.7779,3.7799,3.7812,3.7859,3.787,3.7874,3.7888,3.7826,3.7826,3.7826,3.7826,3.7638,3.767,3.7679,3.773,3.7746,3.7788,3.7821,3.7823,3.7863,3.7849,3.7863,3.7844,3.7881,3.7894,3.7827,3.7827,3.7827,3.7827,3.7827,3.7669,3.7688,3.7708,3.7759,3.7796,3.7819,3.786,3.7872,3.7883,3.7897,3.7913,3.7913,3.7913,3.7905,3.7905,3.7905,3.7905,3.7905,3.7905,3.7694,3.7716,3.775,3.7791,3.7815,3.7848,3.7883,3.7905,3.7934,3.7939,3.7939,3.794,3.7883,3.7867,3.7908,3.7907,3.7907,3.7907,3.7907,3.7753,3.7743,3.7795,3.7819,3.7869,3.7906,3.7923,3.7969,3.799,3.8009,3.8009,3.7965,3.7965,3.7961,3.7948,3.8007,3.8007,3.8007,3.8007,3.7778,3.7782,3.7839,3.7878,3.7917,3.7939,3.7996,3.8024,3.8051,3.8064,3.8058,3.8043,3.8038,3.804,3.8034,3.8022,3.8099,3.8099,3.8099,3.7816,3.7824,3.7871,3.7901,3.7942,3.7976,3.803,3.8072,3.81,3.8103,3.8075,3.8071,3.8046,3.8038,3.8037,3.8028,3.8006,0,0]}]]